Regional Weather Roundup
Issued by NWS Cleveland, OH

Home | Current Version | Previous Version | Graphics & Text | Print | Product List | Glossary On
Versions: 1 2 3 4 5 6 7 8 9 10 11 12 13 14 15 16 17 18 19 20 21 22 23 24 25 26 27 28 29 30 31 32 33 34 35 36 37 38 39 40 41 42 43 44 45 46 47 48 49 50
000
ASUS41 KCLE 250100
RWRCLE
OHIO REGIONAL WEATHER ROUNDUP
NATIONAL WEATHER SERVICE WILMINGTON, OH
900 PM EDT THU MAY 24 2018

NOTE: "FAIR" INDICATES FEW OR NO CLOUDS BELOW 12,000 FEET WITH NO
SIGNIFICANT WEATHER AND/OR OBSTRUCTIONS TO VISIBILITY.

OHZ001>008-015>018-024>027-034-035-043-044-250200-
   NORTHWEST OHIO

CITY           SKY/WX    TMP DP  RH WIND       PRES   REMARKS
DEFIANCE       FAIR      72  52  49 CALM      30.08F
FINDLAY        FAIR      77  50  38 CALM      30.08F
TOLEDO EXPRESS FAIR      70  53  54 SE3       30.08F
TOLEDO EXEC    FAIR      73  52  47 E6        30.10S
LIMA           FAIR      73  48  41 SE7       30.09F
$$

OHZ009>014-019>023-028>033-038-089-250200-
   NORTHEAST OHIO

CITY           SKY/WX    TMP DP  RH WIND       PRES   REMARKS
CLE-HOPKINS    FAIR      71  48  43 N6        30.13F
CLE-LAKEFRONT  FAIR      67  55  65 NE3       30.10F
CUY CO. ARPT   PTCLDY    68  55  64 CALM      30.13F
LORAIN-ELYRIA  FAIR      69  47  45 NE7       30.12F
ASHTABULA      FAIR      64  52  64 CALM      30.13F
AKRON-CANTON   FAIR      72  52  49 CALM      30.12F
WOOSTER        NOT AVBL
MANSFIELD      FAIR      70  51  51 E3        30.12F
YOUNGSTOWN     MOCLDY    70  50  49 CALM      30.12F
$$

OHZ042-051>053-060>062-070>072-077>081-250200-
  SOUTHWEST OHIO

CITY           SKY/WX    TMP DP  RH WIND       PRES   REMARKS
CINC-COVINGTON FAIR      73  56  54 SE5       30.08S
CINC-LUNKEN    FAIR      71  64  78 CALM      30.07S
HAMILTON       FAIR      69  62  78 CALM      30.08S
DAYTON         NOT AVBL
WRIGHT-PAT AFB FAIR      75  53  45 CALM      30.08F
DAYTON GENERAL FAIR      78  49  35 E5        30.08S
WILMINGTON     FAIR      73  55  53 E3        30.09S
$$

OHZ036-037-039>041-045>050-054>059-063>069-073>076-082>088-250200-
  CENTRAL AND SOUTHEAST OHIO

CITY           SKY/WX    TMP DP  RH WIND       PRES   REMARKS
COLUMBUS       FAIR      76  51  41 NE5       30.09S
OSU AIRPORT    FAIR      75  50  41 E5        30.09F
BOLTON FIELD   NOT AVBL
RICKENBACK AFB NOT AVBL
NEWARK         FAIR      70  59  68 CALM      30.09S
MARION         FAIR      74  45  35 CALM      30.11S
LANCASTER      FAIR      70  64  81 NE5       30.10S
ZANESVILLE     FAIR      73  53  49 CALM      30.10S
NEW PHILLY     FAIR      70  56  61 CALM      30.12S
$$




USA.gov is the U.S. government's official web portal to all federal, state and local government web resources and services.